Temperature
10 10 10 10 10 10 10 10 10 9 9 9 9 9 9 8 8 8 8 7 7 6 6 6 5 5 4 4 3 3 2 2 1 1 0 0 -0 -0
10 10 10 10 10 10 10 10 9 9 9 9 9 9 8 8 8 7 7 7 7 6 6 5 4 4 4 3 3 2 1 1 0 0 -0 -1 -1 -1
10 10 10 10 10 9 9 9 9 9 9 9 8 8 8 8 7 7 7 6 6 5 5 4 4 3 3 2 2 1 1 1 -0 -1 -1 -1 -1 -2
10 10 10 10 9 9 9 9 9 9 9 8 8 8 8 7 7 7 6 6 5 5 4 4 3 3 2 2 1 1 0 -0 -1 -1 -2 -2 -2 -2
11 10 10 10 10 10 9 9 9 9 8 8 8 7 7 7 7 6 6 6 5 5 4 3 3 2 2 1 1 0 -0 -1 -1 -2 -2 -2 -3 -3
10 10 10 10 10 10 9 9 9 9 8 8 7 7 7 7 6 6 6 5 4 4 3 3 2 2 1 1 0 -0 -1 -1 -2 -2 -3 -3 -3 -4
10 10 10 10 10 10 10 9 9 9 8 8 7 7 6 6 6 5 5 4 4 3 3 2 2 1 1 0 -0 -1 -2 -2 -3 -3 -3 -4 -4 -4
10 10 10 9 9 9 9 9 9 8 8 8 7 7 6 6 5 5 4 4 3 3 2 2 1 1 0 -0 -1 -2 -2 -3 -3 -4 -4 -4 -4 -4
10 10 9 9 9 9 9 8 8 8 8 7 7 7 6 5 5 4 4 3 3 2 2 2 1 1 -0 -1 -1 -2 -3 -3 -4 -4 -4 -4 -5 -5
10 10 9 9 9 9 8 8 8 7 7 7 6 6 5 5 4 4 3 3 2 2 1 1 1 0 -0 -1 -2 -3 -3 -4 -4 -4 -5 -5 -5 -5
9 9 9 9 9 8 8 8 7 7 6 6 6 5 5 4 4 3 3 2 2 1 0 -0 -1 -1 -1 -1 -2 -3 -3 -4 -4 -5 -5 -5 -5 -6
9 9 9 9 8 8 8 7 7 7 6 6 5 5 4 4 3 3 2 2 1 0 -1 -1 -2 -2 -2 -2 -2 -3 -4 -4 -4 -5 -5 -5 -6 -6
9 8 8 8 8 7 7 7 7 6 6 5 5 4 4 3 3 2 2 1 0 -1 -1 -2 -2 -3 -4 -4 -3 -3 -4 -4 -5 -5 -5 -6 -6 -6
9 8 8 7 7 7 7 6 6 6 5 5 4 4 3 3 2 2 1 0 -0 -1 -2 -2 -3 -4 -4 -5 -4 -4 -4 -5 -5 -5 -6 -6 -6 -6
8 8 8 7 7 6 6 6 5 5 5 4 4 3 3 2 2 1 1 0 -1 -1 -2 -3 -3 -4 -4 -5 -5 -5 -5 -5 -5 -6 -6 -6 -6 -6
7 7 7 6 6 6 5 5 5 4 4 4 3 3 2 2 1 1 0 -0 -1 -1 -2 -3 -4 -4 -4 -5 -5 -5 -6 -6 -6 -6 -6 -6 -6 -7
7 7 6 6 5 5 5 4 4 4 3 3 3 2 2 1 1 0 -0 -1 -1 -2 -2 -3 -4 -4 -4 -5 -5 -6 -6 -7 -7 -7 -6 -6 -6 -7
7 7 6 6 5 5 5 4 4 3 3 3 2 2 1 1 0 -0 -1 -1 -2 -3 -3 -4 -4 -4 -4 -5 -5 -6 -7 -7 -7 -7 -7 -7 -6 -6
6 6 6 5 5 5 4 4 4 3 3 2 2 1 1 0 -0 -1 -1 -2 -2 -3 -4 -4 -5 -6 -6 -6 -6 -6 -7 -7 -7 -7 -7 -7 -7 -7
6 6 6 5 5 5 4 4 3 3 2 2 1 1 1 0 -0 -1 -2 -2 -3 -3 -4 -5 -5 -6 -7 -7 -7 -6 -7 -8 -8 -8 -7 -7 -7 -7
6 5 5 5 5 4 4 4 3 3 2 2 1 1 0 -0 -1 -1 -2 -3 -3 -4 -4 -5 -6 -6 -7 -7 -7 -7 -7 -7 -8 -8 -8 -8 -7 -7
5 5 5 4 4 4 4 3 3 2 2 1 1 0 -0 -1 -1 -2 -2 -3 -4 -4 -5 -5 -6 -6 -7 -7 -7 -7 -7 -7 -7 -7 -8 -8 -9 -9
5 5 5 4 4 4 3 3 2 2 1 1 0 -0 -0 -1 -2 -2 -3 -4 -4 -5 -5 -6 -6 -6 -7 -7 -8 -8 -7 -7 -7 -7 -7 -7 -8 -8
Wind_Speed
10 9 7 5 4 4 4 5 5 3 3 3 2 2 5 5 4 3 3 3 3 3 4 5 6 8 9 10 11 12 13 14 15 16 18 19 20 21
9 10 8 5 5 4 4 4 4 4 3 2 2 3 4 4 4 3 3 2 2 3 4 5 6 7 8 9 10 11 12 13 14 16 18 18 19 20
10 11 10 8 6 5 5 4 4 4 3 1 1 2 3 3 2 2 2 2 2 3 4 5 6 7 8 8 9 10 12 13 14 16 17 18 19 20
13 12 10 9 8 7 6 5 4 4 4 3 1 2 2 2 2 1 0 1 2 3 4 5 6 7 7 8 9 10 11 12 13 15 17 18 19 20
13 13 11 11 9 7 7 6 5 4 4 4 2 1 1 1 1 1 1 1 2 3 3 5 6 6 7 7 8 9 10 12 13 15 16 18 19 20
12 12 12 12 11 10 8 7 6 5 4 4 3 2 1 1 1 0 1 1 2 1 3 5 5 6 7 8 8 9 11 12 14 15 17 17 18 19
11 11 10 12 12 10 8 8 8 6 5 4 3 2 2 2 1 1 1 2 1 1 2 3 3 3 4 6 7 9 11 12 14 16 17 17 18 19
12 11 10 12 12 12 11 11 10 8 7 5 4 3 3 3 2 1 1 1 2 2 2 3 2 2 3 4 7 9 10 12 14 16 16 17 17 18
12 11 9 9 12 10 10 11 8 8 8 7 6 4 4 4 4 2 1 0 1 1 2 2 2 3 4 7 8 9 11 13 15 15 16 16 17 18
12 12 12 11 11 12 10 8 6 5 6 5 5 4 4 4 4 3 2 1 1 2 2 1 2 3 5 6 7 9 12 13 15 16 16 17 17 17
10 11 12 11 16 17 13 11 9 6 8 11 10 9 9 8 7 4 3 2 1 1 2 1 2 4 4 3 6 10 12 13 15 16 17 18 18 17
9 10 13 14 18 18 13 12 11 8 7 8 8 8 8 8 7 4 3 2 1 0 1 2 2 3 4 3 4 7 9 13 16 16 17 18 19 13
10 9 9 17 19 18 14 10 12 11 9 8 6 5 5 4 4 5 4 2 2 1 0 1 1 2 2 4 4 4 6 8 10 11 15 19 19 15
11 9 10 18 18 17 12 14 17 14 8 7 6 5 4 3 3 4 5 5 3 2 1 0 0 1 3 4 4 5 6 8 7 6 10 17 17 18
9 14 17 19 17 12 15 18 14 9 8 7 6 4 3 4 4 4 4 5 5 3 2 1 1 2 2 3 5 5 6 6 6 6 8 9 8 10
11 15 18 17 13 12 13 11 7 7 7 7 6 5 4 4 3 2 2 2 2 2 3 4 3 2 3 4 5 6 6 5 7 8 8 8 9 9
12 9 9 9 8 7 7 7 6 7 6 6 7 6 5 4 3 2 2 1 1 1 2 3 5 6 5 5 4 5 5 5 6 8 9 10 8 8
14 11 10 10 10 9 9 7 6 6 6 6 6 6 5 4 3 2 2 1 1 1 1 2 4 5 4 3 3 4 4 5 7 8 7 8 9 8
11 10 11 10 10 9 9 8 6 6 6 7 6 6 5 4 4 3 2 1 1 1 1 2 3 3 5 6 5 3 4 7 8 7 6 6 8 10
9 11 11 10 10 10 9 8 8 7 7 6 6 6 5 5 4 3 2 1 1 1 2 2 2 2 2 4 4 6 10 7 7 8 8 7 7 11
9 9 9 10 10 9 9 9 9 8 8 7 6 6 5 5 4 3 2 2 1 1 2 2 3 5 2 3 5 6 6 11 11 8 8 8 7 6
10 10 9 10 10 10 9 9 9 8 8 7 6 6 5 5 5 4 3 2 1 1 1 2 3 3 2 3 6 8 8 10 13 15 11 8 5 5
10 10 10 10 10 9 9 10 10 9 8 7 7 6 5 5 4 4 3 2 1 1 1 2 3 3 3 4 5 6 9 10 8 9 7 12 14 14
Wind_Direction
179 180 180 179 169 164 151 150 154 177 211 192 162 145 143 149 166 178 194 237 260 284 299 306 314 318 320 323 325 327 329 332 333 331 329 329 329 329
178 179 180 174 168 162 156 155 153 163 191 185 154 147 142 149 158 164 194 236 249 287 302 307 313 319 323 324 327 330 333 333 332 331 331 332 332 332
178 180 182 172 169 168 161 162 165 155 178 180 111 115 120 128 127 152 183 210 245 288 301 308 315 322 327 332 332 333 334 334 333 334 334 334 333 332
180 178 180 174 170 170 168 172 174 165 162 177 152 122 128 139 138 144 204 234 264 288 300 308 318 324 328 332 334 335 337 338 337 336 335 334 333 332
178 179 177 173 176 172 170 174 174 162 150 156 164 131 112 115 102 42 331 314 292 289 312 318 318 320 321 331 336 337 339 337 336 336 336 335 334 333
178 178 177 178 178 174 175 175 165 157 147 145 149 139 125 114 109 97 315 304 310 347 344 327 321 326 326 329 332 335 336 336 335 336 336 335 334 333
171 171 170 169 172 173 172 170 164 160 152 153 157 147 148 143 181 180 275 314 324 13 339 317 315 318 323 326 327 332 336 337 338 338 336 336 335 335
169 166 164 163 164 161 157 156 160 165 170 166 167 171 183 176 156 147 134 22 288 336 346 306 321 316 312 316 323 332 335 339 339 338 337 337 337 336
168 165 163 163 155 151 143 136 137 145 156 161 162 177 172 178 156 149 158 194 240 292 359 299 315 316 325 325 329 336 340 341 340 339 339 339 339 338
167 165 162 159 160 151 143 134 124 120 134 134 143 144 136 135 145 154 157 105 25 6 42 315 311 313 321 319 331 343 342 341 342 341 342 342 341 340
162 161 162 162 158 148 145 142 131 113 100 110 108 108 108 110 112 108 101 78 28 349 23 16 322 324 315 307 328 337 338 340 342 342 342 342 341 341
153 157 160 161 159 154 156 154 152 149 135 116 102 96 92 94 96 104 129 116 88 281 360 18 346 350 325 307 318 323 331 338 341 342 342 342 342 342
158 159 163 158 157 157 155 158 156 146 139 130 121 110 97 86 77 74 77 114 138 205 314 34 355 344 312 306 310 318 333 330 330 333 339 341 341 342
162 159 155 152 152 152 151 147 141 135 133 130 128 128 123 109 87 77 72 69 86 150 222 93 212 296 311 311 303 315 322 321 325 328 332 335 337 336
151 148 145 145 144 144 143 142 140 139 138 138 143 143 133 124 112 93 75 66 49 34 26 7 237 280 283 286 296 306 316 316 327 331 328 327 323 324
133 136 134 133 131 132 136 138 137 143 143 144 141 132 122 119 117 106 89 66 44 12 6 357 334 295 291 286 285 293 300 303 320 326 324 319 319 320
137 133 135 138 138 135 134 134 133 134 132 131 134 135 131 125 118 102 90 65 57 0 342 343 339 318 277 268 284 288 297 304 310 321 326 322 314 315
141 149 151 152 153 151 148 144 142 142 140 138 139 139 140 139 131 112 82 72 62 13 342 334 341 345 346 319 260 284 303 307 313 316 317 318 315 316
145 154 157 158 155 153 153 152 150 146 142 142 141 141 140 138 135 129 107 74 52 17 351 348 355 1 352 334 314 311 316 314 316 316 312 310 305 307
154 157 158 157 155 155 155 151 145 144 143 143 141 142 142 141 140 138 132 122 70 10 356 354 358 352 327 301 297 298 306 304 311 314 311 306 294 299
156 154 153 154 155 154 152 150 149 149 147 145 144 144 145 142 139 138 136 126 77 38 353 333 315 326 301 298 306 306 304 316 316 308 308 313 315 314
153 150 150 152 153 152 150 148 146 146 146 145 146 144 143 142 144 143 138 134 100 40 338 320 313 325 334 328 319 314 315 318 325 327 319 303 307 314
152 150 150 152 151 149 149 148 147 149 150 148 145 145 143 140 138 135 133 126 107 65 7 339 338 340 329 318 316 315 317 321 326 331 324 328 324 311
Height
1482 1487 1491 1494 1498 1501 1503 1505 1507 1508 1510 1510 1511 1512 1512 1513 1512 1511 1510 1508 1507 1505 1502 1500 1498 1495 1493 1490 1487 1484 1481 1478 1475 1471 1468 1465 1461 1457
1478 1483 1487 1490 1494 1497 1499 1501 1503 1505 1506 1507 1507 1508 1509 1509 1508 1507 1506 1504 1503 1501 1499 1496 1494 1492 1489 1486 1483 1480 1477 1474 1470 1467 1464 1460 1457 1453
1473 1478 1482 1486 1489 1492 1495 1497 1499 1501 1502 1504 1505 1505 1505 1505 1504 1503 1502 1500 1499 1497 1495 1493 1490 1488 1485 1482 1479 1476 1473 1470 1466 1463 1460 1456 1452 1449
1468 1473 1477 1481 1485 1488 1491 1493 1495 1497 1499 1500 1501 1501 1501 1501 1500 1499 1498 1497 1495 1493 1491 1489 1487 1484 1481 1479 1476 1472 1469 1466 1462 1459 1455 1452 1448 1444
1463 1468 1472 1476 1480 1483 1486 1489 1491 1493 1495 1496 1496 1497 1497 1497 1496 1495 1494 1493 1491 1490 1488 1486 1483 1481 1478 1475 1472 1469 1466 1462 1459 1455 1451 1447 1444 1440
1458 1463 1467 1471 1475 1478 1482 1484 1487 1489 1490 1491 1492 1493 1493 1492 1492 1491 1490 1489 1488 1486 1484 1482 1480 1477 1474 1471 1469 1465 1462 1459 1455 1451 1448 1444 1440 1436
1453 1458 1463 1467 1471 1474 1477 1479 1482 1484 1485 1486 1488 1488 1488 1488 1488 1487 1486 1485 1484 1482 1480 1478 1476 1473 1471 1468 1465 1462 1459 1455 1452 1448 1444 1440 1436 1432
1448 1453 1458 1463 1467 1470 1473 1475 1478 1480 1481 1482 1483 1484 1484 1484 1484 1484 1483 1481 1480 1479 1477 1475 1473 1470 1467 1464 1462 1459 1456 1452 1449 1445 1441 1437 1433 1429
1444 1449 1453 1458 1461 1465 1468 1471 1473 1475 1477 1479 1479 1480 1481 1481 1481 1480 1480 1479 1477 1475 1473 1471 1469 1467 1464 1461 1459 1456 1453 1449 1446 1442 1438 1434 1430 1426
1439 1444 1449 1453 1457 1460 1464 1466 1469 1471 1473 1474 1476 1477 1477 1478 1477 1477 1477 1476 1474 1472 1470 1468 1466 1463 1461 1458 1456 1453 1449 1446 1443 1439 1435 1431 1427 1423
1435 1440 1444 1448 1452 1456 1459 1462 1464 1467 1469 1471 1472 1473 1474 1474 1474 1474 1473 1472 1471 1469 1468 1466 1463 1460 1458 1456 1453 1450 1446 1443 1439 1436 1432 1428 1424 1420
1430 1435 1440 1444 1447 1451 1454 1457 1460 1462 1465 1467 1468 1470 1470 1471 1471 1471 1470 1469 1468 1467 1465 1463 1460 1458 1454 1452 1450 1447 1443 1440 1437 1433 1429 1425 1421 1417
1425 1430 1435 1439 1443 1447 1450 1453 1456 1459 1461 1463 1465 1466 1467 1468 1468 1468 1468 1467 1466 1464 1463 1461 1458 1456 1453 1449 1446 1444 1441 1437 1433 1430 1426 1423 1419 1415
1420 1425 1430 1435 1439 1443 1446 1449 1453 1456 1458 1460 1462 1463 1464 1465 1465 1465 1465 1464 1464 1463 1461 1459 1456 1454 1450 1446 1443 1440 1438 1435 1431 1427 1424 1420 1416 1413
1416 1421 1426 1431 1436 1439 1443 1446 1449 1452 1454 1456 1458 1460 1461 1462 1463 1463 1462 1462 1461 1460 1458 1456 1454 1451 1448 1445 1441 1437 1434 1431 1428 1425 1421 1417 1413 1409
1413 1418 1423 1428 1432 1436 1439 1443 1446 1449 1451 1453 1455 1457 1458 1459 1460 1460 1460 1459 1458 1457 1456 1453 1451 1449 1446 1443 1440 1436 1433 1430 1426 1422 1418 1414 1411 1407
1409 1414 1419 1424 1428 1432 1436 1439 1443 1445 1448 1450 1453 1454 1456 1457 1458 1458 1457 1457 1456 1454 1452 1451 1449 1446 1443 1441 1437 1434 1431 1428 1424 1420 1415 1411 1408 1405
1406 1410 1414 1419 1423 1427 1432 1436 1439 1442 1445 1448 1450 1452 1453 1454 1455 1455 1455 1454 1453 1452 1450 1448 1446 1443 1441 1438 1437 1432 1429 1425 1422 1418 1414 1409 1405 1403
1401 1405 1410 1415 1419 1424 1428 1433 1436 1440 1443 1445 1448 1449 1451 1452 1452 1453 1452 1452 1451 1450 1448 1446 1444 1441 1439 1436 1434 1432 1427 1423 1419 1415 1412 1408 1403 1400
1397 1402 1406 1411 1416 1421 1426 1430 1434 1437 1440 1443 1445 1447 1448 1450 1450 1450 1450 1450 1449 1448 1446 1445 1443 1441 1439 1437 1432 1430 1427 1422 1417 1413 1409 1405 1402 1399
1394 1399 1404 1409 1414 1419 1423 1427 1431 1434 1437 1440 1443 1445 1446 1447 1448 1448 1448 1448 1447 1446 1445 1443 1442 1440 1438 1435 1432 1428 1425 1422 1417 1412 1407 1403 1398 1395
1391 1396 1401 1407 1412 1416 1421 1424 1428 1432 1435 1438 1440 1442 1444 1445 1446 1446 1446 1446 1445 1445 1443 1442 1440 1438 1436 1433 1430 1426 1422 1419 1416 1412 1408 1403 1400 1394
1389 1394 1399 1404 1409 1414 1418 1422 1426 1429 1433 1436 1438 1440 1442 1443 1444 1445 1445 1444 1444 1443 1442 1440 1439 1437 1434 1432 1429 1425 1421 1417 1414 1410 1407 1403 1400 1396